| time (UTC) | temp F | wind direction | speed MPH | gust MPH | rain 1hr in | rain 24hr in | rain mn in | humidity % | barometer mb |
| 20260502210402 | 77 | 297 | 5.0 | 5.0 | 0.00 | 0.00 | 0.00 | 27 | 932.3 |
| 20260502205901 | 76 | 259 | 2.0 | 5.0 | 0.00 | 0.00 | 0.00 | 28 | 932.3 |
| 20260502205401 | 76 | 300 | 2.0 | 5.0 | 0.00 | 0.00 | 0.00 | 24 | 932.3 |
| 20260502204901 | 76 | 176 | 2.0 | 4.0 | 0.00 | 0.00 | 0.00 | 26 | 932.6 |
| 20260502204401 | 77 | 214 | 2.0 | 5.0 | 0.00 | 0.00 | 0.00 | 25 | 932.6 |
| 20260502203901 | 76 | 280 | 2.0 | 6.0 | 0.00 | 0.00 | 0.00 | 29 | 932.6 |
| 20260502203401 | 74 | 142 | 3.0 | 3.0 | 0.00 | 0.00 | 0.00 | 26 | 932.6 |
| 20260502202902 | 75 | 350 | 3.0 | 7.0 | 0.00 | 0.00 | 0.00 | 25 | 932.6 |
| 20260502202401 | 74 | 37 | 2.0 | 6.0 | 0.00 | 0.00 | 0.00 | 26 | 933.0 |
| 20260502201902 | 74 | 54 | 3.0 | 5.0 | 0.00 | 0.00 | 0.00 | 26 | 933.0 |
| 20260502201402 | 73 | 255 | 5.0 | 6.0 | 0.00 | 0.00 | 0.00 | 25 | 933.0 |
| 20260502200902 | 74 | 288 | 4.0 | 8.0 | 0.00 | 0.00 | 0.00 | 25 | 933.0 |
| 20260502200403 | 74 | 276 | 6.0 | 9.0 | 0.00 | 0.00 | 0.00 | 25 | 933.0 |
| 20260502195901 | 73 | 262 | 2.0 | 5.0 | 0.00 | 0.00 | 0.00 | 26 | 933.0 |
| 20260502195401 | 73 | 302 | 4.0 | 5.0 | 0.00 | 0.00 | 0.00 | 31 | 933.3 |
| 20260502194901 | 74 | 288 | 4.0 | 7.0 | 0.00 | 0.00 | 0.00 | 27 | 933.0 |
| 20260502194401 | 74 | 341 | 6.0 | 6.0 | 0.00 | 0.00 | 0.00 | 27 | 933.3 |
| 20260502193901 | 75 | 298 | 3.0 | 5.0 | 0.00 | 0.00 | 0.00 | 29 | 933.3 |
| 20260502193403 | 74 | 128 | 1.0 | 5.0 | 0.00 | 0.00 | 0.00 | 27 | 933.3 |
| 20260502192903 | 75 | 130 | 3.0 | 5.0 | 0.00 | 0.00 | 0.00 | 27 | 933.6 |
| 20260502192402 | 74 | 223 | 1.0 | 5.0 | 0.00 | 0.00 | 0.00 | 28 | 933.3 |
| 20260502191901 | 75 | 150 | 3.0 | 4.0 | 0.00 | 0.00 | 0.00 | 26 | 933.6 |
| 20260502191401 | 74 | 40 | 1.0 | 4.0 | 0.00 | 0.00 | 0.00 | 29 | 933.6 |
| 20260502190901 | 73 | 177 | 3.0 | 3.0 | 0.00 | 0.00 | 0.00 | 31 | 933.6 |
| 20260502190401 | 72 | 121 | 2.0 | 7.0 | 0.00 | 0.00 | 0.00 | 32 | 933.6 |
| 20260502185902 | 72 | 35 | 4.0 | 5.0 | 0.00 | 0.00 | 0.00 | 31 | 934.0 |
| 20260502185403 | 72 | 263 | 1.0 | 5.0 | 0.00 | 0.00 | 0.00 | 32 | 933.6 |
| 20260502184902 | 72 | 160 | 3.0 | 6.0 | 0.00 | 0.00 | 0.00 | 31 | 933.6 |
| 20260502184401 | 70 | 163 | 3.0 | 3.0 | 0.00 | 0.00 | 0.00 | 33 | 934.0 |
| 20260502183902 | 69 | 41 | 1.0 | 4.0 | 0.00 | 0.00 | 0.00 | 37 | 934.0 |
| 20260502183401 | 70 | 0 | 3.0 | 5.0 | 0.00 | 0.00 | 0.00 | 33 | 934.0 |
| 20260502182903 | 69 | 16 | 1.0 | 3.0 | 0.00 | 0.00 | 0.00 | 34 | 934.3 |
| 20260502182401 | 68 | 333 | 1.0 | 2.0 | 0.00 | 0.00 | 0.00 | 34 | 934.0 |
| 20260502181901 | 69 | 162 | 4.0 | 4.0 | 0.00 | 0.00 | 0.00 | 34 | 934.0 |
| 20260502181402 | 69 | 155 | 3.0 | 5.0 | 0.00 | 0.00 | 0.00 | 37 | 934.3 |
| 20260502180902 | 68 | 121 | 1.0 | 3.0 | 0.00 | 0.00 | 0.00 | 36 | 934.3 |
| 20260502180401 | 68 | 242 | 2.0 | 4.0 | 0.00 | 0.00 | 0.00 | 36 | 934.3 |
| 20260502170402 | 64 | 41 | 7.0 | 9.0 | 0.00 | 0.00 | 0.00 | 43 | 935.0 |
| 20260502163902 | 61 | 213 | 4.0 | 7.0 | 0.00 | 0.00 | 0.00 | 45 | 935.0 |
| 20260502163402 | 61 | 117 | 5.0 | 7.0 | 0.00 | 0.00 | 0.00 | 46 | 935.0 |
| 20260502162901 | 60 | 137 | 3.0 | 7.0 | 0.00 | 0.00 | 0.00 | 49 | 935.0 |
| 20260502162401 | 60 | 128 | 6.0 | 9.0 | 0.00 | 0.00 | 0.00 | 48 | 935.0 |
| 20260502161901 | 60 | 147 | 5.0 | 7.0 | 0.00 | 0.00 | 0.00 | 51 | 935.0 |
| 20260502161402 | 59 | 151 | 4.0 | 9.0 | 0.00 | 0.00 | 0.00 | 51 | 935.3 |
| 20260502160901 | 59 | 149 | 5.0 | 8.0 | 0.00 | 0.00 | 0.00 | 55 | 935.3 |
| 20260502160403 | 58 | 139 | 0.0 | 4.0 | 0.00 | 0.00 | 0.00 | 55 | 935.0 |
| 20260502151901 | 53 | 131 | 3.0 | 8.0 | 0.00 | 0.00 | 0.00 | 65 | 935.3 |
| 20260502151402 | 53 | 130 | 3.0 | 5.0 | 0.00 | 0.00 | 0.00 | 67 | 935.3 |
| 20260502150441 | 51 | 120 | 3.0 | 7.0 | 0.00 | 0.00 | 0.00 | 72 | 935.0 |
| 20260502130401 | 40 | 47 | 2.0 | 6.0 | 0.00 | 0.00 | 0.00 | 97 | 935.0 |
| 20260502123402 | 40 | 89 | 0.0 | 2.0 | 0.00 | 0.00 | 0.00 | 97 | 935.0 |
| 20260502122902 | 40 | 44 | 3.0 | 3.0 | 0.00 | 0.00 | 0.00 | 97 | 934.6 |
| 20260502122401 | 40 | 46 | 3.0 | 6.0 | 0.00 | 0.00 | 0.00 | 97 | 935.0 |
| 20260502121901 | 40 | 35 | 0.0 | 4.0 | 0.00 | 0.00 | 0.00 | 97 | 935.0 |
| 20260502121401 | 40 | 75 | 1.0 | 1.0 | 0.00 | 0.00 | 0.00 | 96 | 935.0 |
| 20260502120902 | 41 | 58 | 1.0 | 1.0 | 0.00 | 0.00 | 0.00 | 96 | 935.0 |
| 20260502120402 | 41 | 135 | 0.0 | 1.0 | 0.00 | 0.00 | 0.00 | 96 | 935.0 |
| 20260502115901 | 41 | 48 | 1.0 | 2.0 | 0.00 | 0.00 | 0.00 | 96 | 935.0 |
| 20260502115401 | 41 | 31 | 3.0 | 3.0 | 0.00 | 0.00 | 0.00 | 96 | 934.6 |
| 20260502114902 | 41 | 26 | 3.0 | 3.0 | 0.00 | 0.00 | 0.00 | 96 | 935.0 |
| 20260502114402 | 41 | 143 | 0.0 | 1.0 | 0.00 | 0.00 | 0.00 | 95 | 935.0 |
| 20260502113902 | 41 | 143 | 0.0 | 1.0 | 0.00 | 0.00 | 0.00 | 95 | 935.0 |
| 20260502113401 | 41 | 143 | 0.0 | 1.0 | 0.00 | 0.00 | 0.00 | 95 | 935.0 |
| 20260502112901 | 41 | 143 | 0.0 | 1.0 | 0.00 | 0.00 | 0.00 | 95 | 935.0 |
| 20260502112401 | 41 | 143 | 0.0 | 1.0 | 0.00 | 0.00 | 0.00 | 95 | 935.0 |
| 20260502111901 | 41 | 143 | 0.0 | 1.0 | 0.00 | 0.00 | 0.00 | 95 | 935.0 |
| 20260502111401 | 41 | 143 | 0.0 | 1.0 | 0.00 | 0.00 | 0.00 | 95 | 934.6 |
| 20260502110902 | 41 | 143 | 0.0 | 1.0 | 0.00 | 0.00 | 0.00 | 95 | 934.6 |
| 20260502110402 | 41 | 62 | 2.0 | 2.0 | 0.00 | 0.00 | 0.00 | 94 | 935.0 |
| 20260502105902 | 42 | 118 | 2.0 | 2.0 | 0.00 | 0.00 | 0.00 | 94 | 935.0 |
| 20260502105401 | 42 | 84 | 2.0 | 2.0 | 0.00 | 0.00 | 0.00 | 95 | 935.0 |
| 20260502104903 | 42 | 40 | 4.0 | 5.0 | 0.00 | 0.00 | 0.00 | 95 | 935.0 |
| 20260502104401 | 41 | 50 | 3.0 | 3.0 | 0.00 | 0.00 | 0.00 | 95 | 935.0 |
| 20260502103902 | 41 | 50 | 3.0 | 3.0 | 0.00 | 0.00 | 0.00 | 95 | 935.0 |
| 20260502103402 | 41 | 38 | 3.0 | 3.0 | 0.00 | 0.00 | 0.00 | 94 | 935.0 |
| 20260502102902 | 42 | 117 | 0.0 | 2.0 | 0.00 | 0.00 | 0.00 | 94 | 935.0 |
| 20260502102401 | 42 | 72 | 0.0 | 2.0 | 0.00 | 0.00 | 0.00 | 94 | 935.0 |
| 20260502101901 | 42 | 65 | 2.0 | 3.0 | 0.00 | 0.00 | 0.00 | 94 | 934.6 |
| 20260502101401 | 42 | 58 | 1.0 | 2.0 | 0.00 | 0.00 | 0.00 | 92 | 934.6 |
| 20260502100904 | 42 | 40 | 2.0 | 3.0 | 0.00 | 0.00 | 0.00 | 92 | 934.6 |
| 20260502100401 | 43 | 42 | 4.0 | 5.0 | 0.00 | 0.00 | 0.00 | 93 | 934.6 |
| 20260502091402 | 45 | 67 | 1.0 | 1.0 | 0.00 | 0.00 | 0.00 | 86 | 934.3 |
| 20260502090902 | 45 | 67 | 1.0 | 1.0 | 0.00 | 0.00 | 0.00 | 86 | 934.3 |
| 20260502090402 | 45 | 67 | 1.0 | 1.0 | 0.00 | 0.00 | 0.00 | 86 | 934.3 |
| 20260502071402 | 46 | 143 | 2.0 | 2.0 | 0.00 | 0.00 | 0.00 | 82 | 934.3 |
| 20260502070902 | 47 | 67 | 0.0 | 1.0 | 0.00 | 0.00 | 0.00 | 80 | 934.0 |
| 20260502070401 | 47 | 67 | 0.0 | 1.0 | 0.00 | 0.00 | 0.00 | 80 | 934.3 |
| 20260502065901 | 47 | 78 | 1.0 | 2.0 | 0.00 | 0.00 | 0.00 | 80 | 934.3 |
| 20260502065402 | 47 | 72 | 3.0 | 3.0 | 0.00 | 0.00 | 0.00 | 79 | 934.3 |
| 20260502064902 | 47 | 71 | 3.0 | 3.0 | 0.00 | 0.00 | 0.00 | 80 | 934.3 |
| 20260502064401 | 47 | 106 | 2.0 | 3.0 | 0.00 | 0.00 | 0.00 | 80 | 934.0 |
| 20260502063901 | 47 | 92 | 2.0 | 2.0 | 0.00 | 0.00 | 0.00 | 79 | 934.0 |
| 20260502063401 | 47 | 77 | 0.0 | 2.0 | 0.00 | 0.00 | 0.00 | 79 | 934.0 |
| 20260502062902 | 48 | 65 | 2.0 | 3.0 | 0.00 | 0.00 | 0.00 | 77 | 934.0 |
| 20260502062401 | 48 | 71 | 2.0 | 2.0 | 0.00 | 0.00 | 0.00 | 77 | 934.3 |
| 20260502061901 | 48 | 39 | 0.0 | 2.0 | 0.00 | 0.00 | 0.00 | 76 | 934.0 |
| 20260502061401 | 49 | 59 | 1.0 | 2.0 | 0.00 | 0.00 | 0.00 | 76 | 934.0 |
| 20260502060902 | 49 | 126 | 2.0 | 2.0 | 0.00 | 0.00 | 0.00 | 75 | 934.0 |
| 20260502060402 | 49 | 142 | 0.0 | 1.0 | 0.00 | 0.00 | 0.00 | 75 | 934.0 |
| 20260502055902 | 49 | 60 | 3.0 | 3.0 | 0.00 | 0.00 | 0.00 | 75 | 934.0 |
| 20260502055402 | 50 | 82 | 1.0 | 2.0 | 0.00 | 0.00 | 0.00 | 76 | 934.0 |
| 20260502054901 | 50 | 130 | 2.0 | 3.0 | 0.00 | 0.00 | 0.00 | 75 | 933.6 |
| 20260502054401 | 51 | 117 | 0.0 | 0.0 | 0.00 | 0.00 | 0.00 | 72 | 934.0 |
| 20260502053902 | 51 | 39 | 3.0 | 4.0 | 0.00 | 0.00 | 0.00 | 72 | 933.6 |
| 20260502053402 | 51 | 43 | 4.0 | 4.0 | 0.00 | 0.00 | 0.00 | 72 | 933.6 |
| 20260502052902 | 51 | 55 | 2.0 | 2.0 | 0.00 | 0.00 | 0.00 | 72 | 933.6 |
| 20260502052402 | 51 | 75 | 2.0 | 2.0 | 0.00 | 0.00 | 0.00 | 70 | 933.6 |
| 20260502051901 | 51 | 65 | 2.0 | 3.0 | 0.00 | 0.00 | 0.00 | 70 | 933.6 |
| 20260502051401 | 52 | 68 | 2.0 | 2.0 | 0.00 | 0.00 | 0.00 | 69 | 933.6 |
| 20260502050903 | 52 | 35 | 2.0 | 2.0 | 0.00 | 0.00 | 0.00 | 68 | 933.6 |
| 20260502050401 | 53 | 39 | 2.0 | 2.0 | 0.00 | 0.00 | 0.00 | 67 | 933.6 |
| 20260502045901 | 53 | 32 | 2.0 | 3.0 | 0.00 | 0.00 | 0.00 | 66 | 933.6 |
| 20260502045401 | 53 | 51 | 2.0 | 2.0 | 0.00 | 0.00 | 0.00 | 67 | 933.3 |
| 20260502044902 | 55 | 73 | 0.0 | 1.0 | 0.00 | 0.00 | 0.00 | 62 | 933.6 |
| 20260502044402 | 55 | 73 | 0.0 | 1.0 | 0.00 | 0.00 | 0.00 | 62 | 933.3 |
| 20260502043901 | 55 | 95 | 2.0 | 2.0 | 0.00 | 0.00 | 0.00 | 60 | 933.3 |
| 20260502043401 | 55 | 63 | 2.0 | 3.0 | 0.00 | 0.00 | 0.00 | 60 | 933.6 |
| 20260502042901 | 55 | 53 | 3.0 | 3.0 | 0.00 | 0.00 | 0.00 | 60 | 933.6 |
| 20260502042401 | 56 | 63 | 2.0 | 3.0 | 0.00 | 0.00 | 0.00 | 60 | 933.3 |
| 20260502041901 | 56 | 32 | 2.0 | 2.0 | 0.00 | 0.00 | 0.00 | 58 | 933.6 |
| 20260502041401 | 57 | 49 | 3.0 | 3.0 | 0.00 | 0.00 | 0.00 | 57 | 933.3 |
| 20260502040901 | 57 | 34 | 2.0 | 2.0 | 0.00 | 0.00 | 0.00 | 57 | 933.3 |
| 20260502040403 | 57 | 99 | 1.0 | 3.0 | 0.00 | 0.00 | 0.00 | 53 | 933.3 |
| 20260502035901 | 58 | 163 | 3.0 | 3.0 | 0.00 | 0.00 | 0.00 | 55 | 933.3 |
| 20260502035401 | 59 | 92 | 1.0 | 3.0 | 0.00 | 0.00 | 0.00 | 51 | 933.0 |
| 20260502034902 | 59 | 118 | 2.0 | 3.0 | 0.00 | 0.00 | 0.00 | 49 | 933.0 |
| 20260502034401 | 59 | 151 | 0.0 | 2.0 | 0.00 | 0.00 | 0.00 | 49 | 933.0 |
| 20260502033901 | 59 | 85 | 2.0 | 3.0 | 0.00 | 0.00 | 0.00 | 50 | 933.0 |
| 20260502033402 | 60 | 59 | 0.0 | 2.0 | 0.00 | 0.00 | 0.00 | 48 | 933.0 |
| 20260502032901 | 60 | 63 | 3.0 | 3.0 | 0.00 | 0.00 | 0.00 | 49 | 933.0 |
| 20260502032402 | 60 | 81 | 1.0 | 2.0 | 0.00 | 0.00 | 0.00 | 50 | 932.6 |
| 20260502031901 | 61 | 311 | 0.0 | 2.0 | 0.00 | 0.00 | 0.00 | 50 | 933.0 |
| 20260502031401 | 62 | 15 | 2.0 | 4.0 | 0.00 | 0.00 | 0.00 | 46 | 932.6 |
| 20260502030902 | 63 | 33 | 3.0 | 5.0 | 0.00 | 0.00 | 0.00 | 44 | 932.3 |
| 20260502030402 | 64 | 22 | 5.0 | 6.0 | 0.00 | 0.00 | 0.00 | 41 | 932.3 |
| 20260502025901 | 65 | 30 | 4.0 | 5.0 | 0.00 | 0.00 | 0.00 | 40 | 932.6 |
| 20260502025402 | 66 | 14 | 4.0 | 5.0 | 0.00 | 0.00 | 0.00 | 38 | 932.6 |
| 20260502024902 | 67 | 11 | 4.0 | 5.0 | 0.00 | 0.00 | 0.00 | 36 | 932.3 |
| 20260502024401 | 68 | 0 | 4.0 | 4.0 | 0.00 | 0.00 | 0.00 | 33 | 932.3 |
| 20260502023901 | 68 | 17 | 2.0 | 3.0 | 0.00 | 0.00 | 0.00 | 32 | 932.3 |
| 20260502023401 | 69 | 10 | 2.0 | 3.0 | 0.00 | 0.00 | 0.00 | 33 | 932.3 |
| 20260502022901 | 69 | 22 | 0.0 | 1.0 | 0.00 | 0.00 | 0.00 | 32 | 932.3 |
| 20260502022402 | 69 | 44 | 0.0 | 0.0 | 0.00 | 0.00 | 0.00 | 31 | 932.3 |
| 20260502021901 | 70 | 25 | 0.0 | 1.0 | 0.00 | 0.00 | 0.00 | 31 | 932.3 |
| 20260502021401 | 71 | 2 | 3.0 | 3.0 | 0.00 | 0.00 | 0.00 | 30 | 931.9 |
| 20260502020901 | 71 | 342 | 7.0 | 9.0 | 0.00 | 0.00 | 0.00 | 29 | 931.9 |
| 20260502020402 | 71 | 296 | 5.0 | 9.0 | 0.00 | 0.00 | 0.00 | 29 | 931.9 |
| 20260502015901 | 72 | 332 | 3.0 | 4.0 | 0.00 | 0.00 | 0.00 | 30 | 931.9 |
| 20260502015402 | 72 | 315 | 2.0 | 3.0 | 0.00 | 0.00 | 0.00 | 28 | 931.9 |
| 20260502014902 | 71 | 320 | 1.0 | 2.0 | 0.00 | 0.00 | 0.00 | 28 | 931.9 |
| 20260502014402 | 72 | 281 | 4.0 | 5.0 | 0.00 | 0.00 | 0.00 | 28 | 932.3 |
| 20260502013902 | 72 | 343 | 5.0 | 7.0 | 0.00 | 0.00 | 0.00 | 27 | 931.9 |
| 20260502013402 | 73 | 353 | 8.0 | 10.0 | 0.00 | 0.00 | 0.00 | 27 | 931.9 |
| 20260502012901 | 73 | 336 | 5.0 | 7.0 | 0.00 | 0.00 | 0.00 | 28 | 931.9 |
| 20260502012401 | 73 | 321 | 4.0 | 6.0 | 0.00 | 0.00 | 0.00 | 26 | 931.9 |
| 20260502011903 | 73 | 322 | 5.0 | 11.0 | 0.00 | 0.00 | 0.00 | 27 | 932.3 |
| 20260502011401 | 73 | 351 | 5.0 | 7.0 | 0.00 | 0.00 | 0.00 | 27 | 932.3 |
| 20260502010901 | 73 | 287 | 6.0 | 10.0 | 0.00 | 0.00 | 0.00 | 26 | 931.9 |
| 20260502010401 | 73 | 319 | 7.0 | 11.0 | 0.00 | 0.00 | 0.00 | 25 | 932.3 |
| 20260502005902 | 72 | 317 | 6.0 | 11.0 | 0.00 | 0.00 | 0.00 | 26 | 932.3 |
| 20260502005403 | 73 | 305 | 7.0 | 12.0 | 0.00 | 0.00 | 0.00 | 24 | 932.6 |
| 20260502004902 | 72 | 303 | 6.0 | 10.0 | 0.00 | 0.00 | 0.00 | 25 | 932.3 |
| 20260502004401 | 72 | 313 | 6.0 | 11.0 | 0.00 | 0.00 | 0.00 | 25 | 932.3 |
| 20260502003903 | 73 | 336 | 9.0 | 10.0 | 0.00 | 0.00 | 0.00 | 23 | 932.3 |
| 20260502003401 | 73 | 315 | 7.0 | 11.0 | 0.00 | 0.00 | 0.00 | 23 | 932.3 |
| 20260502002902 | 73 | 274 | 4.0 | 11.0 | 0.00 | 0.00 | 0.00 | 23 | 932.3 |
| 20260502002402 | 73 | 301 | 8.0 | 11.0 | 0.00 | 0.00 | 0.00 | 24 | 932.3 |
| 20260502001902 | 73 | 263 | 4.0 | 7.0 | 0.00 | 0.00 | 0.00 | 23 | 932.3 |
| 20260502001401 | 73 | 297 | 8.0 | 15.0 | 0.00 | 0.00 | 0.00 | 23 | 932.6 |
| 20260502000901 | 73 | 311 | 5.0 | 11.0 | 0.00 | 0.00 | 0.00 | 23 | 932.3 |
| 20260502000402 | 73 | 312 | 7.0 | 8.0 | 0.00 | 0.00 | 0.00 | 26 | 932.3 |
| 20260501235901 | 73 | 352 | 7.0 | 11.0 | 0.00 | 0.00 | 0.00 | 23 | 932.6 |
| 20260501235401 | 73 | 6 | 5.0 | 14.0 | 0.00 | 0.00 | 0.00 | 27 | 932.6 |
| 20260501234901 | 73 | 277 | 8.0 | 13.0 | 0.00 | 0.00 | 0.00 | 23 | 932.6 |
| 20260501234401 | 73 | 305 | 7.0 | 11.0 | 0.00 | 0.00 | 0.00 | 24 | 932.6 |
| 20260501233901 | 72 | 290 | 8.0 | 13.0 | 0.00 | 0.00 | 0.00 | 25 | 932.6 |
| 20260501233401 | 73 | 331 | 4.0 | 12.0 | 0.00 | 0.00 | 0.00 | 24 | 932.6 |
| 20260501232902 | 72 | 348 | 10.0 | 13.0 | 0.00 | 0.00 | 0.00 | 26 | 932.6 |
| 20260501232401 | 73 | 310 | 11.0 | 18.0 | 0.00 | 0.00 | 0.00 | 23 | 932.6 |
| 20260501231902 | 73 | 348 | 9.0 | 12.0 | 0.00 | 0.00 | 0.00 | 26 | 932.6 |
| 20260501231402 | 73 | 300 | 10.0 | 13.0 | 0.00 | 0.00 | 0.00 | 25 | 932.6 |
| 20260501230901 | 73 | 241 | 5.0 | 11.0 | 0.00 | 0.00 | 0.00 | 25 | 932.6 |
| 20260501230401 | 73 | 320 | 9.0 | 13.0 | 0.00 | 0.00 | 0.00 | 25 | 932.6 |
| 20260501225901 | 73 | 313 | 10.0 | 13.0 | 0.00 | 0.00 | 0.00 | 25 | 933.0 |
| 20260501225403 | 73 | 322 | 9.0 | 12.0 | 0.00 | 0.00 | 0.00 | 25 | 933.0 |
| 20260501224901 | 73 | 311 | 3.0 | 11.0 | 0.00 | 0.00 | 0.00 | 26 | 933.0 |
| 20260501224402 | 73 | 307 | 8.0 | 12.0 | 0.00 | 0.00 | 0.00 | 28 | 933.0 |
| 20260501223901 | 73 | 306 | 6.0 | 12.0 | 0.00 | 0.00 | 0.00 | 25 | 933.0 |
| 20260501223402 | 73 | 323 | 5.0 | 12.0 | 0.00 | 0.00 | 0.00 | 25 | 933.0 |
| 20260501222901 | 73 | 271 | 3.0 | 12.0 | 0.00 | 0.00 | 0.00 | 26 | 933.0 |
| 20260501222402 | 73 | 289 | 12.0 | 12.0 | 0.00 | 0.00 | 0.00 | 25 | 933.3 |
| 20260501221902 | 73 | 295 | 5.0 | 13.0 | 0.00 | 0.00 | 0.00 | 27 | 933.3 |
| 20260501221401 | 73 | 296 | 8.0 | 11.0 | 0.00 | 0.00 | 0.00 | 26 | 933.3 |
| 20260501220902 | 73 | 285 | 5.0 | 7.0 | 0.00 | 0.00 | 0.00 | 28 | 933.3 |
| 20260501220401 | 73 | 347 | 6.0 | 13.0 | 0.00 | 0.00 | 0.00 | 29 | 933.3 |
| 20260501215904 | 72 | 330 | 2.0 | 9.0 | 0.00 | 0.00 | 0.00 | 25 | 933.3 |
| 20260501215402 | 72 | 326 | 10.0 | 11.0 | 0.00 | 0.00 | 0.00 | 26 | 933.3 |
| 20260501214901 | 72 | 279 | 3.0 | 10.0 | 0.00 | 0.00 | 0.00 | 27 | 933.3 |
| 20260501214401 | 72 | 11 | 7.0 | 11.0 | 0.00 | 0.00 | 0.00 | 24 | 933.6 |
| 20260501213901 | 72 | 321 | 9.0 | 14.0 | 0.00 | 0.00 | 0.00 | 25 | 933.6 |
| 20260501213402 | 72 | 244 | 3.0 | 11.0 | 0.00 | 0.00 | 0.00 | 27 | 933.6 |
| 20260501212902 | 72 | 308 | 6.0 | 11.0 | 0.00 | 0.00 | 0.00 | 28 | 933.6 |
| 20260501212402 | 72 | 346 | 6.0 | 12.0 | 0.00 | 0.00 | 0.00 | 25 | 933.6 |
| 20260501211901 | 73 | 345 | 8.0 | 16.0 | 0.00 | 0.00 | 0.00 | 26 | 933.6 |
| 20260501211402 | 72 | 336 | 6.0 | 10.0 | 0.00 | 0.00 | 0.00 | 26 | 933.6 |
| 20260501210902 | 73 | 346 | 9.0 | 11.0 | 0.00 | 0.00 | 0.00 | 26 | 934.0 |